Location: Newark
(52.2583°N, 7.1190°W)
Time: 05:39:57
(UTC+00:00)

S-56A Canister/Altair - Pass Details

Date: 22 November 2019
Orbit: 633 x 2499 km, 38.9° (Epoch: 11 December)

Event Time Altitude Azimuth Distance (km) Brightness Sun altitude
Rises 19:52:33 0° 260° (W) 4,717 12.6 -30.7°
Reaches altitude 10° 19:56:45 10° 249° (WSW) 3,379 11.5 -31.4°
Maximum altitude 20:02:49 24° 200° (SSW) 2,031 9.7 -32.3°
Enters shadow 20:03:24 23° 192° (SSW) 2,001 9.6 -32.4°
